Temperature
13 12 12 12 11 11 11 11 10 10 10 10 9 9 9 9 9 9 10 10 10 10 10 10 10 10 11 12 12 12 12 12 13 13 13 13 13 13 13 14 14 14 15
13 12 12 11 11 11 11 10 10 10 10 9 9 9 9 9 9 9 9 9 9 10 10 10 10 10 10 10 11 11 12 12 12 12 13 13 13 13 13 13 13 14 14
13 12 12 11 11 11 10 10 10 9 9 9 9 9 9 9 9 9 9 9 9 9 9 9 10 10 10 10 10 11 11 12 11 12 12 12 12 12 12 13 13 13 14
13 12 12 11 11 10 10 10 9 9 9 9 9 9 9 9 9 9 9 9 9 9 9 9 9 9 9 10 10 10 10 11 11 11 12 12 12 12 12 12 13 13 13
12 12 12 11 10 10 10 10 9 9 9 9 9 9 9 9 9 9 8 8 9 9 9 9 9 9 9 9 10 10 10 10 11 11 12 12 12 12 12 12 12 12 12
12 12 11 11 10 10 10 9 9 9 9 9 9 9 9 9 9 9 8 8 8 8 8 8 8 8 9 9 9 9 9 9 10 11 11 12 12 12 12 12 12 12 12
12 11 11 11 10 10 10 9 9 9 9 9 9 9 8 8 8 8 8 8 8 8 8 8 8 9 9 8 8 9 9 9 9 9 10 11 11 11 11 12 11 11 12
12 12 11 10 10 10 10 9 9 9 9 9 9 9 9 9 8 8 8 8 8 8 8 8 8 8 8 8 8 9 9 9 9 9 9 10 10 11 11 11 11 11 11
12 12 11 10 10 10 9 9 9 9 9 9 9 8 8 9 8 8 8 8 8 8 8 8 8 8 8 8 8 8 8 9 9 9 9 10 10 10 10 10 10 11 11
12 11 11 10 10 10 9 9 9 9 9 9 9 9 8 8 8 8 8 7 7 8 8 8 8 7 7 7 7 7 8 8 9 9 9 10 10 10 10 10 10 10 11
12 11 11 10 10 10 9 9 9 9 9 9 9 9 9 8 8 8 8 8 7 7 7 7 7 7 7 7 7 7 7 8 8 9 9 9 9 9 10 10 10 10 11
11 11 11 10 10 10 10 9 9 9 9 9 9 9 9 9 8 8 8 8 7 7 7 7 7 7 7 7 7 7 7 7 8 8 9 9 9 10 10 10 10 10 10
12 11 11 10 10 10 10 10 9 9 9 9 9 9 9 9 8 8 8 8 7 7 7 7 7 7 7 7 7 7 7 7 7 8 8 9 9 10 10 10 10 10 10
12 11 11 11 10 10 10 10 10 10 9 9 9 9 9 9 8 8 8 7 7 7 6 7 7 7 7 7 7 7 7 7 7 8 8 9 9 9 9 10 10 10 10
12 11 11 11 11 10 10 10 10 9 9 9 9 9 9 8 8 8 8 7 7 7 6 6 7 7 7 7 7 7 7 7 7 8 8 8 9 9 9 9 10 10 10
12 12 12 12 11 11 11 10 10 10 10 9 9 9 8 8 8 8 8 7 7 7 7 6 7 7 7 7 7 7 7 7 7 7 8 8 8 9 9 9 9 10 10
12 12 12 11 11 11 11 10 10 10 10 10 9 9 9 8 8 8 8 7 7 7 7 7 7 7 7 7 7 7 7 7 7 7 8 8 8 9 9 9 9 9 10
12 12 11 11 11 11 10 10 10 10 10 10 10 9 9 9 8 8 8 8 7 7 7 7 7 7 7 7 7 7 7 7 7 7 8 8 8 9 9 9 9 9 10
12 12 12 11 11 11 11 10 10 10 10 10 10 10 9 9 9 8 8 8 7 7 7 7 7 8 7 7 7 7 7 7 7 8 8 8 8 9 9 9 9 9 10
12 12 12 11 11 11 11 11 11 10 10 10 10 10 10 9 9 9 8 8 8 8 8 8 8 8 8 8 8 7 7 8 8 8 8 8 8 9 9 9 9 9 9
12 12 11 11 11 11 11 11 11 10 10 11 10 10 10 9 9 9 8 8 8 8 8 8 8 8 8 8 8 8 8 8 8 8 8 8 8 9 9 9 9 10 10
12 12 12 11 11 11 11 11 11 10 10 10 10 10 10 9 9 9 9 8 8 8 8 8 8 8 8 8 8 8 8 8 8 8 8 8 8 9 9 9 9 10 10
11 11 11 11 11 11 10 11 11 10 10 10 10 10 10 10 9 9 9 9 8 8 8 8 8 8 8 8 8 8 8 8 8 8 8 8 9 9 9 9 9 9 10
11 11 11 11 11 11 11 11 11 10 10 10 10 10 10 9 9 9 9 8 8 8 8 8 8 8 8 8 8 8 8 8 8 8 8 9 9 9 9 9 9 9 9
10 10 10 11 11 11 11 11 10 10 10 10 10 10 10 9 9 9 9 9 8 8 8 8 8 8 8 8 8 8 8 8 8 8 8 8 9 9 9 9 9 9 9
10 10 10 10 10 10 10 10 10 10 10 10 10 10 10 9 9 9 9 9 8 8 8 8 8 8 8 8 8 8 8 8 8 8 8 8 9 9 9 9 9 9 9
Wind_Speed
5 6 7 8 9 9 10 10 10 10 11 11 12 12 12 12 12 11 12 13 13 13 13 13 14 14 12 11 11 11 11 11 12 10 7 6 6 6 5 4 5 6 7
6 6 8 8 9 10 11 10 11 11 11 12 12 12 13 13 12 12 13 13 13 14 14 14 14 13 14 13 12 13 12 11 12 12 8 6 6 5 5 4 4 4 5
6 7 8 9 10 10 11 11 11 11 12 12 12 12 13 13 13 13 13 13 14 14 14 14 15 14 14 13 13 13 12 12 12 12 11 7 6 5 4 4 3 2 3
7 8 9 9 10 11 11 11 11 11 11 12 12 12 12 12 13 13 13 13 14 14 14 15 15 15 15 14 13 14 13 13 12 12 11 9 7 5 5 4 4 3 3
8 9 9 10 10 11 11 11 11 11 12 12 12 12 12 11 11 11 12 13 14 14 15 15 15 14 13 12 12 12 12 12 12 12 12 10 8 6 5 4 4 5 3
8 9 10 10 10 11 11 11 11 11 12 12 12 12 12 11 4 4 10 14 14 15 15 14 14 14 15 15 16 16 15 14 14 12 12 11 10 8 6 5 4 5 4
8 9 10 10 11 11 12 12 11 11 12 12 12 12 13 12 7 8 11 13 15 15 15 14 13 14 13 15 16 20 20 19 17 15 15 13 11 10 8 8 7 6 4
9 9 10 10 11 11 12 12 11 11 11 12 12 13 13 11 7 9 10 13 15 16 16 16 15 15 15 14 15 15 16 17 18 17 16 14 12 8 8 8 6 5 3
9 9 10 10 11 12 12 12 11 11 12 12 12 12 13 12 8 9 9 12 12 15 15 15 15 15 13 10 14 15 15 14 13 13 11 9 5 4 6 7 7 7 5
9 9 10 10 11 12 12 12 11 11 12 12 12 12 13 13 8 7 8 10 12 12 12 12 13 14 11 9 14 15 15 14 13 13 13 12 12 11 11 11 10 9 7
9 10 10 10 11 12 12 11 11 11 12 12 13 12 12 12 10 8 9 9 11 11 11 10 9 9 12 12 13 14 13 11 11 12 12 12 13 12 13 13 11 10 9
9 10 11 11 11 10 11 11 11 11 12 12 11 12 10 9 8 6 8 10 11 11 11 10 7 4 8 11 12 12 10 9 10 10 10 11 12 12 12 12 12 10 8
9 10 11 11 11 11 11 12 11 10 9 10 10 10 10 9 6 8 10 11 12 10 10 9 8 7 8 10 13 12 11 11 11 11 11 12 11 11 10 10 11 10 9
10 10 10 11 11 10 9 9 10 10 9 10 10 10 10 9 8 6 5 6 9 10 10 9 11 11 11 9 8 11 12 11 11 11 11 11 10 10 10 10 10 9 8
10 10 11 11 10 9 10 9 10 10 9 10 11 11 11 10 7 6 8 8 8 7 8 8 8 7 8 8 9 9 10 10 11 11 10 10 10 10 10 10 10 9 9
10 10 10 9 9 9 10 10 9 12 11 13 15 14 11 11 11 10 10 11 12 10 8 8 8 7 8 8 8 9 9 10 10 10 10 10 10 10 11 10 11 11 10
11 10 10 10 10 10 10 10 11 9 11 15 16 16 15 14 13 13 12 11 12 10 8 8 8 7 7 7 7 8 9 9 9 9 9 9 10 10 11 11 11 11 11
12 10 10 10 10 10 10 10 10 11 11 9 8 13 14 14 13 12 10 8 8 8 8 8 7 7 6 6 6 7 7 7 8 8 9 9 10 10 11 11 11 12 11
11 9 8 9 10 10 10 10 10 10 10 10 8 5 8 10 12 11 9 8 8 7 7 7 7 6 5 5 5 5 6 7 7 8 9 9 9 10 10 11 11 12 11
10 11 9 10 11 10 9 9 9 9 10 9 8 7 5 6 7 5 6 7 7 7 6 6 6 6 5 5 5 5 6 6 8 8 8 9 9 9 10 11 10 11 11
10 9 9 10 11 10 9 9 9 9 9 8 7 5 5 8 7 7 6 5 6 6 6 6 5 5 5 5 6 6 7 7 7 8 8 9 9 9 9 10 10 10 10
10 10 9 9 9 9 9 9 9 9 9 9 7 4 4 6 7 6 6 5 5 5 5 5 5 5 5 5 6 6 7 7 7 8 8 8 9 9 9 9 10 10 9
10 11 10 10 9 8 9 10 9 8 8 8 7 6 5 5 6 6 5 5 4 4 4 4 5 4 4 5 5 5 6 6 7 7 8 9 9 9 9 9 10 10 11
10 11 11 10 9 9 9 9 8 7 7 8 7 6 5 5 5 5 5 5 4 3 3 3 4 4 5 5 5 5 5 4 5 7 9 8 9 9 9 10 10 12 11
10 9 9 9 9 9 8 8 8 7 6 6 6 6 5 5 5 4 4 4 3 3 3 3 3 3 4 5 5 3 3 2 2 3 7 8 9 10 10 11 10 10 11
10 9 9 8 8 8 8 7 7 6 5 5 5 4 5 5 5 4 4 3 3 2 2 3 3 3 3 3 2 2 4 3 2 3 5 7 9 9 10 9 12 11 12
Wind_Direction
290 290 293 292 295 293 289 289 290 288 288 285 285 285 283 280 276 272 270 273 267 265 263 259 256 260 262 261 255 253 253 253 261 267 262 270 273 281 275 265 233 209 198
292 290 292 294 294 293 294 296 293 288 285 285 284 284 282 280 277 273 270 271 269 266 264 263 261 257 253 255 257 253 253 254 256 264 264 263 260 268 267 256 244 207 188
298 296 298 298 299 298 298 296 294 291 288 287 285 284 284 283 280 275 272 270 268 267 265 264 262 260 258 255 253 254 251 247 245 253 255 251 254 254 258 244 218 189 168
299 299 300 302 303 301 299 297 294 292 291 289 288 286 285 283 280 277 275 272 269 267 265 263 261 259 257 256 253 251 253 253 247 247 251 245 235 233 235 229 204 175 163
298 299 302 304 303 300 300 298 296 293 290 289 288 286 285 282 278 284 285 280 276 271 267 263 260 260 267 266 264 258 251 247 245 242 242 241 234 221 226 220 207 166 150
295 299 302 302 303 303 302 300 298 295 293 290 287 286 285 283 312 307 284 283 280 275 272 267 264 255 246 240 249 260 265 257 252 249 244 239 234 227 221 221 203 185 173
295 298 301 303 304 305 304 304 301 298 295 292 290 288 286 285 266 254 259 273 273 271 270 267 265 262 247 247 235 231 241 246 252 257 255 250 238 222 213 212 206 205 184
297 299 303 303 304 305 304 301 300 297 295 292 291 290 289 285 256 249 257 266 266 266 265 263 262 264 261 257 255 246 240 235 230 234 244 249 249 237 216 215 211 188 158
299 302 304 305 304 303 302 302 301 297 294 292 291 291 290 287 262 245 258 278 271 269 267 264 263 262 256 245 254 255 252 246 233 229 239 248 266 219 210 210 201 190 183
302 304 304 301 300 300 300 301 299 295 291 292 293 293 290 288 275 237 249 275 277 278 275 268 258 254 262 239 248 250 249 244 240 220 216 222 226 211 201 214 208 202 188
302 301 299 298 297 294 295 295 294 292 292 292 292 290 286 281 272 234 236 268 280 283 281 276 270 232 232 235 244 252 255 259 247 235 226 221 219 214 208 209 210 209 198
295 294 296 297 298 300 297 294 294 293 291 290 290 291 290 281 270 243 221 244 272 278 278 279 281 253 232 231 235 244 250 252 245 239 228 224 219 213 207 205 202 205 207
290 291 294 296 297 294 294 296 295 292 292 296 299 300 302 302 282 218 225 239 248 262 275 288 291 276 250 238 232 232 231 232 231 230 228 225 221 214 205 198 195 194 193
282 288 290 292 294 297 296 293 295 298 299 301 302 302 302 301 301 301 282 260 243 254 268 263 242 241 244 253 233 218 225 227 227 227 226 223 216 207 202 196 189 182 178
278 283 287 290 294 296 292 289 290 292 296 295 300 301 301 302 322 336 305 296 299 303 303 281 265 248 236 229 227 224 219 218 222 227 224 219 211 207 203 194 188 185 186
272 278 286 292 298 297 298 297 262 251 259 251 252 265 282 280 287 286 279 274 275 279 279 268 262 253 243 232 226 222 219 218 219 220 220 215 208 204 201 195 189 191 189
266 278 286 291 295 296 298 302 304 286 242 237 240 243 248 269 277 276 274 273 266 255 253 260 260 256 251 241 229 223 221 216 215 216 214 212 207 203 197 193 192 194 191
263 269 267 279 285 290 294 296 297 299 304 300 254 229 235 248 258 261 260 265 257 234 246 257 262 257 249 241 230 224 218 209 207 211 211 209 205 199 196 194 193 193 189
264 271 277 284 285 285 288 290 292 295 297 302 307 277 227 241 240 243 234 248 266 264 254 254 258 258 249 234 224 219 212 207 210 211 207 205 201 198 197 197 194 187 188
257 254 259 277 281 283 284 289 295 298 297 301 309 311 309 292 290 260 231 248 261 265 264 260 257 253 245 232 220 216 214 207 207 211 203 198 195 197 199 197 192 187 189
268 260 227 256 271 279 285 289 294 297 298 303 306 315 317 305 304 302 292 276 269 269 266 262 259 251 239 227 221 218 213 210 208 206 200 195 194 196 199 197 192 188 186
271 272 273 274 280 282 286 288 289 292 294 299 304 297 230 280 302 307 309 301 288 276 270 268 263 251 241 230 221 218 214 209 205 204 201 197 192 194 197 195 191 186 181
269 272 274 273 276 274 272 277 284 288 295 300 301 310 313 312 312 313 310 302 294 283 269 264 268 262 245 234 230 224 219 213 205 200 199 195 193 193 195 194 193 187 183
270 271 274 277 277 279 281 285 287 291 297 298 304 313 318 315 313 317 316 313 304 293 275 263 259 262 254 240 230 222 215 211 211 207 205 201 197 196 194 192 192 191 188
275 273 274 275 277 280 284 288 292 296 295 299 309 318 323 322 322 329 330 326 313 299 286 278 270 256 246 240 232 215 127 119 236 238 207 209 206 201 196 193 190 187 185
274 272 272 273 276 283 289 295 297 299 298 301 309 318 325 325 327 334 337 334 325 304 293 288 281 261 237 227 208 119 121 154 202 272 236 212 206 202 198 196 191 189 186
Height
1522 1521 1519 1518 1516 1514 1512 1510 1507 1504 1502 1499 1498 1496 1494 1492 1491 1489 1488 1487 1486 1485 1485 1484 1484 1483 1484 1484 1484 1484 1484 1484 1483 1482 1482 1481 1481 1481 1481 1480 1482 1483 1486
1519 1518 1516 1514 1511 1509 1508 1505 1502 1499 1497 1495 1492 1490 1488 1487 1485 1484 1482 1482 1480 1479 1479 1478 1478 1478 1477 1477 1478 1478 1478 1478 1479 1478 1478 1477 1477 1477 1477 1477 1478 1479 1482
1517 1515 1513 1510 1508 1505 1503 1500 1497 1494 1492 1489 1487 1485 1483 1481 1479 1478 1476 1475 1474 1473 1472 1472 1471 1471 1471 1471 1471 1472 1473 1473 1473 1473 1473 1473 1473 1473 1473 1473 1474 1475 1477
1513 1511 1509 1506 1504 1501 1498 1495 1492 1489 1487 1484 1482 1480 1477 1475 1473 1472 1471 1469 1467 1466 1465 1465 1464 1464 1464 1464 1465 1465 1466 1467 1467 1468 1468 1468 1468 1469 1469 1470 1471 1472 1473
1510 1508 1505 1503 1500 1497 1493 1490 1487 1485 1482 1479 1477 1474 1472 1470 1468 1467 1465 1463 1461 1460 1458 1457 1457 1457 1457 1458 1459 1459 1460 1461 1461 1462 1463 1463 1464 1464 1466 1466 1467 1468 1471
1506 1504 1502 1498 1496 1492 1489 1486 1483 1480 1477 1474 1472 1469 1467 1466 1464 1461 1458 1456 1455 1453 1452 1451 1450 1450 1449 1449 1450 1451 1453 1454 1455 1456 1457 1458 1459 1460 1462 1463 1464 1465 1467
1502 1500 1498 1495 1492 1489 1485 1482 1479 1476 1473 1470 1467 1464 1461 1459 1457 1454 1452 1449 1448 1446 1445 1444 1444 1444 1444 1443 1443 1443 1444 1446 1448 1450 1452 1453 1454 1456 1457 1459 1460 1462 1464
1499 1497 1494 1491 1488 1485 1481 1478 1474 1471 1468 1465 1461 1459 1456 1453 1451 1448 1446 1443 1441 1439 1438 1437 1436 1436 1437 1437 1437 1438 1438 1439 1440 1443 1445 1447 1450 1451 1453 1455 1457 1459 1461
1496 1493 1491 1487 1484 1480 1477 1474 1470 1466 1463 1460 1457 1453 1450 1447 1445 1443 1440 1437 1435 1433 1432 1430 1429 1429 1429 1429 1430 1431 1432 1433 1435 1437 1439 1441 1443 1446 1448 1451 1453 1455 1457
1493 1490 1487 1483 1480 1476 1472 1469 1466 1462 1458 1455 1452 1448 1445 1442 1440 1437 1435 1432 1430 1428 1426 1424 1422 1422 1422 1422 1423 1424 1425 1427 1429 1431 1432 1435 1437 1440 1442 1445 1448 1451 1453
1488 1485 1482 1479 1475 1472 1468 1464 1461 1457 1454 1450 1446 1443 1440 1436 1434 1431 1429 1427 1425 1422 1420 1418 1417 1416 1415 1415 1416 1418 1419 1421 1423 1425 1427 1429 1432 1434 1437 1440 1443 1446 1449
1483 1481 1478 1475 1471 1468 1464 1460 1456 1453 1449 1445 1442 1438 1435 1432 1429 1426 1424 1422 1419 1417 1414 1413 1412 1410 1409 1409 1410 1411 1413 1415 1418 1419 1421 1423 1426 1429 1432 1435 1438 1442 1445
1479 1477 1474 1470 1467 1463 1460 1456 1452 1449 1445 1442 1438 1434 1431 1428 1425 1422 1419 1416 1414 1411 1409 1407 1405 1404 1404 1404 1404 1405 1407 1409 1412 1414 1416 1418 1421 1424 1428 1431 1434 1437 1441
1474 1472 1469 1466 1463 1460 1456 1452 1449 1445 1442 1438 1434 1430 1427 1424 1421 1418 1415 1412 1409 1406 1404 1401 1400 1399 1398 1398 1399 1400 1401 1404 1406 1408 1411 1414 1417 1419 1422 1426 1429 1433 1437
1470 1468 1465 1463 1459 1455 1452 1448 1444 1441 1438 1434 1430 1427 1423 1420 1417 1414 1411 1408 1405 1402 1399 1397 1396 1395 1394 1394 1394 1395 1396 1398 1401 1403 1406 1409 1411 1415 1418 1422 1426 1430 1433
1466 1464 1462 1459 1455 1452 1448 1444 1440 1437 1433 1429 1425 1422 1418 1415 1411 1408 1406 1403 1400 1398 1395 1393 1392 1391 1390 1390 1390 1391 1392 1393 1395 1398 1401 1404 1407 1410 1414 1418 1422 1426 1430
1461 1459 1457 1454 1451 1447 1444 1440 1436 1432 1428 1424 1421 1417 1413 1410 1407 1404 1401 1398 1396 1394 1391 1390 1389 1388 1387 1386 1386 1387 1388 1389 1391 1394 1397 1400 1403 1406 1410 1414 1418 1422 1426
1456 1454 1451 1448 1446 1443 1439 1436 1432 1428 1425 1421 1417 1413 1410 1406 1403 1400 1397 1395 1392 1390 1388 1387 1386 1385 1384 1383 1383 1383 1384 1386 1388 1390 1393 1396 1399 1403 1406 1410 1414 1418 1422
1450 1449 1446 1444 1441 1438 1434 1431 1428 1425 1421 1417 1414 1410 1406 1403 1399 1396 1393 1391 1389 1387 1385 1384 1383 1382 1381 1381 1381 1381 1382 1383 1385 1387 1390 1393 1396 1400 1403 1407 1411 1415 1418
1444 1442 1440 1438 1436 1433 1430 1427 1424 1421 1417 1414 1410 1407 1404 1400 1397 1394 1390 1388 1386 1384 1382 1381 1380 1379 1379 1378 1379 1379 1380 1381 1383 1385 1387 1390 1394 1397 1401 1404 1408 1411 1415
1439 1437 1434 1432 1430 1428 1425 1423 1420 1417 1414 1410 1407 1404 1401 1398 1395 1391 1388 1385 1383 1381 1379 1378 1377 1377 1377 1376 1377 1377 1378 1379 1381 1383 1386 1388 1391 1395 1398 1402 1405 1409 1412
1434 1432 1430 1428 1426 1423 1421 1418 1416 1413 1410 1407 1404 1401 1398 1395 1392 1389 1385 1383 1380 1378 1377 1376 1375 1375 1375 1375 1375 1376 1377 1378 1380 1382 1384 1387 1390 1393 1396 1400 1403 1406 1410
1428 1427 1425 1423 1421 1418 1416 1414 1412 1409 1407 1404 1401 1399 1396 1393 1390 1387 1384 1381 1378 1376 1374 1373 1373 1373 1373 1373 1374 1374 1375 1377 1378 1380 1383 1386 1388 1391 1394 1397 1401 1404 1407
1423 1421 1420 1418 1416 1414 1412 1410 1408 1406 1403 1401 1399 1396 1393 1390 1388 1385 1382 1379 1377 1374 1373 1372 1371 1371 1371 1371 1372 1373 1374 1375 1377 1379 1382 1384 1387 1390 1393 1396 1399 1402 1405
1417 1416 1414 1413 1411 1410 1408 1406 1404 1402 1400 1398 1396 1394 1391 1389 1386 1383 1381 1378 1375 1374 1372 1370 1369 1369 1369 1369 1370 1371 1372 1373 1375 1378 1380 1383 1385 1388 1391 1394 1397 1400 1403
1412 1411 1409 1408 1407 1405 1404 1402 1400 1399 1397 1395 1393 1391 1389 1387 1385 1383 1380 1377 1375 1373 1371 1370 1368 1367 1367 1367 1368 1369 1370 1372 1374 1376 1378 1381 1383 1386 1389 1392 1395 1398 1401